• In Uzbekistan
  • List of Countries
  • For 7 days
  • Water Temperature
  • Satellite Maps
  • Weather Map
  • Weather Widgets
  • user-avatar
    Login

    Hourly Weather Pecs

    Today, 22 September, Saturday

    Time Temperature Precipitation Wind Pressure Humidity
    00:00 +20°C° 0 mm 2 mps 742 mmHg 57%
    01:00 +20°C° 0 mm 2 mps 742 mmHg 56%
    02:00 +19°C° 0 mm 2 mps 742 mmHg 60%
    03:00 +19°C° 0 mm 2 mps 742 mmHg 65%
    04:00 +19°C° 0 mm 2 mps 742 mmHg 69%
    05:00 +19°C° 0 mm 4 mps 743 mmHg 66%
    06:00 +19°C° 0 mm 6 mps 744 mmHg 63%
    07:00 +20°C° 0 mm 8 mps 745 mmHg 59%
    08:00 +20°C° 0 mm 8 mps 746 mmHg 53%
    09:00 +20°C° 0 mm 8 mps 746 mmHg 46%
    10:00 +21°C° 0 mm 8 mps 747 mmHg 39%
    11:00 +20°C° 0 mm 8 mps 748 mmHg 40%
    12:00 +18°C° 0 mm 7 mps 748 mmHg 41%
    13:00 +16°C° 0 mm 6 mps 749 mmHg 42%
    14:00 +16°C° 0 mm 5 mps 749 mmHg 45%
    15:00 +15°C° 0 mm 4 mps 749 mmHg 48%
    16:00 +14°C° 0 mm 3 mps 749 mmHg 51%
    17:00 +14°C° 0 mm 3 mps 749 mmHg 53%
    18:00 +15°C° 0 mm 2 mps 749 mmHg 54%
    19:00 +14°C° 0 mm 1 mps 749 mmHg 55%
    20:00 +14°C° 0 mm 1 mps 749 mmHg 55%
    21:00 +14°C° 0 mm 1 mps 749 mmHg 56%
    22:00 +14°C° 0 mm 1 mps 749 mmHg 56%
    23:00 +14°C° 0 mm 1 mps 749 mmHg 57%

    Tomorrow, 23 September, Sunday

    Time Temperature Precipitation Wind Pressure Humidity
    00:00 +13°C° 0 mm 1 mps 749 mmHg 59%
    01:00 +13°C° 0 mm 1 mps 749 mmHg 60%
    02:00 +12°C° 0 mm 0 mps 748 mmHg 59%
    03:00 +12°C° 0 mm 0 mps 748 mmHg 59%
    04:00 +12°C° 0 mm 0 mps 748 mmHg 58%
    05:00 +12°C° 0 mm 0 mps 748 mmHg 56%
    06:00 +14°C° 0 mm 1 mps 748 mmHg 54%
    07:00 +14°C° 0 mm 1 mps 748 mmHg 51%
    08:00 +16°C° 0 mm 2 mps 748 mmHg 46%
    09:00 +18°C° 0 mm 2 mps 748 mmHg 40%
    10:00 +20°C° 0 mm 3 mps 748 mmHg 34%
    11:00 +21°C° 0 mm 3 mps 747 mmHg 35%
    12:00 +24°C° 0 mm 3 mps 746 mmHg 35%
    13:00 +25°C° 0 mm 2 mps 746 mmHg 36%
    14:00 +26°C° 0 mm 2 mps 745 mmHg 37%
    15:00 +26°C° 0 mm 2 mps 744 mmHg 39%
    16:00 +27°C° 0 mm 2 mps 744 mmHg 40%
    17:00 +26°C° 0 mm 2 mps 743 mmHg 46%
    18:00 +24°C° 0 mm 2 mps 743 mmHg 51%
    19:00 +21°C° 0 mm 2 mps 742 mmHg 57%
    20:00 +21°C° 0 mm 2 mps 742 mmHg 58%
    21:00 +21°C° 0 mm 3 mps 742 mmHg 58%
    22:00 +20°C° 0 mm 3 mps 741 mmHg 59%
    23:00 +20°C° 0 mm 4 mps 741 mmHg 61%

    Day after tomorrow, 24 September, Monday

    Time Temperature Precipitation Wind Pressure Humidity
    00:00 +20°C° 0 mm 4 mps 740 mmHg 63%
    01:00 +20°C° 0 mm 4 mps 739 mmHg 65%
    02:00 +20°C° 0.2 mm 4 mps 740 mmHg 69%
    03:00 +19°C° 0.2 mm 4 mps 740 mmHg 74%
    04:00 +19°C° 0.2 mm 4 mps 740 mmHg 78%
    05:00 +17°C° 1.2 mm 5 mps 742 mmHg 75%
    06:00 +15°C° 1.2 mm 6 mps 743 mmHg 72%
    07:00 +13°C° 1.2 mm 8 mps 745 mmHg 69%
    08:00 +12°C° 0.2 mm 7 mps 746 mmHg 69%
    09:00 +11°C° 0.2 mm 6 mps 748 mmHg 70%
    10:00 +12°C° 0.2 mm 5 mps 750 mmHg 71%
    11:00 +12°C° 0.4 mm 4 mps 750 mmHg 69%
    12:00 +12°C° 0.4 mm 4 mps 751 mmHg 67%
    13:00 +13°C° 0.4 mm 3 mps 752 mmHg 65%
    14:00 +13°C° 0 mm 4 mps 752 mmHg 64%
    15:00 +13°C° 0 mm 4 mps 751 mmHg 64%
    16:00 +13°C° 0 mm 4 mps 751 mmHg 63%
    17:00 +12°C° 0 mm 4 mps 752 mmHg 63%
    18:00 +12°C° 0 mm 3 mps 752 mmHg 63%
    19:00 +11°C° 0 mm 3 mps 753 mmHg 62%
    20:00 +10°C° 0 mm 3 mps 753 mmHg 62%
    21:00 +10°C° 0 mm 3 mps 754 mmHg 62%
    22:00 +9°C° 0 mm 3 mps 754 mmHg 62%
    23:00 +9°C° 0 mm 3 mps 754 mmHg 63%

    25 September, Tuesday

    Time Temperature Precipitation Wind Pressure Humidity
    00:00 +8°C° 0 mm 3 mps 754 mmHg 63%
    01:00 +8°C° 0 mm 3 mps 755 mmHg 64%
    02:00 +7°C° 0 mm 3 mps 755 mmHg 65%
    03:00 +7°C° 0 mm 3 mps 755 mmHg 67%
    04:00 +7°C° 0 mm 3 mps 755 mmHg 68%
    05:00 +7°C° 0 mm 3 mps 755 mmHg 67%
    06:00 +7°C° 0 mm 4 mps 756 mmHg 66%
    07:00 +7°C° 0 mm 5 mps 756 mmHg 65%
    08:00 +9°C° 0 mm 5 mps 757 mmHg 55%
    09:00 +12°C° 0 mm 5 mps 757 mmHg 46%
    10:00 +13°C° 0 mm 6 mps 757 mmHg 36%
    11:00 +14°C° 0 mm 6 mps 757 mmHg 34%
    12:00 +15°C° 0 mm 6 mps 757 mmHg 31%
    13:00 +15°C° 0 mm 6 mps 757 mmHg 28%
    14:00 +15°C° 0 mm 5 mps 757 mmHg 29%
    15:00 +15°C° 0 mm 5 mps 757 mmHg 31%
    16:00 +15°C° 0 mm 5 mps 756 mmHg 32%
    17:00 +13°C° 0 mm 4 mps 757 mmHg 38%
    18:00 +11°C° 0 mm 3 mps 757 mmHg 43%
    19:00 +9°C° 0 mm 2 mps 758 mmHg 49%
    20:00 +9°C° 0 mm 2 mps 758 mmHg 51%
    21:00 +8°C° 0 mm 2 mps 759 mmHg 53%
    22:00 +8°C° 0 mm 2 mps 759 mmHg 55%
    23:00 +7°C° 0 mm 2 mps 759 mmHg 56%

    26 September, Wednesday

    Time Temperature Precipitation Wind Pressure Humidity
    00:00 +7°C° 0 mm 2 mps 759 mmHg 56%
    01:00 +6°C° 0 mm 2 mps 760 mmHg 57%
    02:00 +6°C° 0 mm 2 mps 760 mmHg 57%
    03:00 +6°C° 0 mm 2 mps 760 mmHg 58%
    04:00 +6°C° 0 mm 1 mps 760 mmHg 58%
    05:00 +7°C° 0 mm 1 mps 760 mmHg 56%
    06:00 +8°C° 0 mm 1 mps 760 mmHg 53%
    07:00 +8°C° 0 mm 1 mps 760 mmHg 51%
    08:00 +10°C° 0 mm 2 mps 760 mmHg 45%
    09:00 +13°C° 0 mm 2 mps 760 mmHg 38%
    10:00 +15°C° 0 mm 2 mps 760 mmHg 32%
    11:00 +16°C° 0 mm 2 mps 759 mmHg 29%
    12:00 +17°C° 0 mm 2 mps 758 mmHg 27%
    13:00 +18°C° 0 mm 2 mps 758 mmHg 25%
    14:00 +18°C° 0 mm 2 mps 757 mmHg 24%
    15:00 +18°C° 0 mm 2 mps 757 mmHg 24%
    16:00 +18°C° 0 mm 2 mps 756 mmHg 24%
    17:00 +16°C° 0 mm 2 mps 756 mmHg 27%
    18:00 +14°C° 0 mm 1 mps 756 mmHg 31%
    19:00 +12°C° 0 mm 1 mps 756 mmHg 34%
    20:00 +11°C° 0 mm 1 mps 756 mmHg 35%
    21:00 +11°C° 0 mm 1 mps 755 mmHg 35%
    22:00 +10°C° 0 mm 1 mps 755 mmHg 36%
    23:00 +10°C° 0 mm 1 mps 755 mmHg 36%

    27 September, Thursday

    Time Temperature Precipitation Wind Pressure Humidity
    00:00 +9°C° 0 mm 1 mps 755 mmHg 37%
    01:00 +9°C° 0 mm 1 mps 755 mmHg 37%
    02:00 +8°C° 0 mm 1 mps 754 mmHg 38%
    03:00 +8°C° 0 mm 1 mps 754 mmHg 39%
    04:00 +8°C° 0 mm 1 mps 754 mmHg 40%
    05:00 +8°C° 0 mm 1 mps 753 mmHg 39%
    06:00 +9°C° 0 mm 1 mps 753 mmHg 39%
    07:00 +10°C° 0 mm 1 mps 753 mmHg 38%
    08:00 +12°C° 0 mm 1 mps 753 mmHg 33%
    09:00 +15°C° 0 mm 1 mps 753 mmHg 28%
    10:00 +18°C° 0 mm 2 mps 753 mmHg 23%
    11:00 +20°C° 0 mm 1 mps 752 mmHg 22%
    12:00 +22°C° 0 mm 1 mps 751 mmHg 20%
    13:00 +23°C° 0 mm 1 mps 751 mmHg 18%
    14:00 +23°C° 0 mm 1 mps 750 mmHg 18%
    15:00 +23°C° 0 mm 1 mps 749 mmHg 19%
    16:00 +23°C° 0 mm 1 mps 749 mmHg 20%
    17:00 +20°C° 0 mm 1 mps 748 mmHg 23%
    18:00 +18°C° 0 mm 1 mps 748 mmHg 26%
    19:00 +15°C° 0 mm 1 mps 748 mmHg 29%
    20:00 +14°C° 0 mm 1 mps 748 mmHg 30%
    21:00 +13°C° 0 mm 1 mps 748 mmHg 30%
    22:00 +13°C° 0 mm 1 mps 748 mmHg 31%
    23:00 +12°C° 0 mm 1 mps 747 mmHg 32%
    Show more